Stations météo

Publicité
Cannes, France (7684): Température de l'air & dewpoint: 04.12.2019 20:00:00 - 10.12.2019 20:00:00 (CET)Cannes, France (7684): Température de l'air 5cm: 04.12.2019 20:00:00 - 10.12.2019 20:00:00 (CET)Cannes, France (7684): Vitesse du vent & gusts: 04.12.2019 20:00:00 - 10.12.2019 20:00:00 (CET)Cannes, France (7684): Direction du vent: 04.12.2019 20:00:00 - 10.12.2019 20:00:00 (CET)Cannes, France (7684): reduced air pressure: 04.12.2019 20:00:00 - 10.12.2019 20:00:00 (CET)Cannes, France (7684): visibility: 04.12.2019 20:00:00 - 10.12.2019 20:00:00 (CET)Cannes, France (7684): Quantités de précipitations: 04.12.2019 20:00:00 - 10.12.2019 20:00:00 (CET)
Date & Time tt [°C] td [°C] tt 5cm [°C] ff [km/h] ff [knt] fx [km/h] fx [knt] dd ppp [hPa] vv [km] rr [mm]
10.12.2019 20:00:00 - - - - - - - - - - -
10.12.2019 19:00:00 7,5 2,8 5,1 9 5 13 7 N 1019,8 20 0,0
10.12.2019 18:00:00 8,8 3,0 2,9 6 3 11 6 N 1019,0 9 0,0
10.12.2019 17:00:00 11,6 2,6 5,0 0 0 13 7 N 1018,2 60 0,0
10.12.2019 16:00:00 14,9 2,1 13,6 10 6 22 12 S 1017,7 53 0,0
10.12.2019 15:00:00 16,9 0,1 20,0 9 5 15 8 S 1017,3 60 0,0
10.12.2019 14:00:00 17,3 2,8 16,0 10 5 17 9 SSW 1016,9 60 0,0
10.12.2019 13:00:00 16,5 3,9 16,2 11 6 16 9 S 1017,4 32 0,0
10.12.2019 12:00:00 15,7 2,1 17,5 4 2 13 7 N 1017,3 6 0,0
10.12.2019 11:00:00 12,8 1,1 14,1 5 3 18 10 N 1017,5 8 0,0
10.12.2019 10:00:00 9,0 0,2 8,0 8 5 18 10 N 1016,7 50 0,0
10.12.2019 09:00:00 5,7 -0,6 1,5 8 5 20 11 N 1016,3 13 0,0
10.12.2019 08:00:00 4,5 -1,1 0,4 7 4 13 7 N 1015,5 43 0,0
10.12.2019 07:00:00 4,6 -1,2 -0,5 6 3 14 7 N 1014,5 60 0,0
10.12.2019 06:00:00 3,6 -0,2 -1,1 4 2 8 4 NNE 1013,4 60 0,0
10.12.2019 05:00:00 4,3 0,3 -0,3 4 2 8 4 WNW 1012,5 60 0,0
10.12.2019 04:00:00 5,5 -0,1 1,1 5 3 12 6 N 1012,0 60 0,0
10.12.2019 03:00:00 6,3 0,4 1,6 2 1 11 6 NW 1011,7 60 0,0
10.12.2019 02:00:00 7,6 0,1 1,9 6 3 10 5 NNE 1010,7 60 0,0
10.12.2019 01:00:00 9,5 -0,4 4,1 0 0 27 15 N 1009,9 60 0,0
10.12.2019 00:00:00 13,9 -4,8 9,6 10 5 40 21 N 1008,4 60 0,0
09.12.2019 23:00:00 12,5 -1,5 10,5 18 10 42 23 W 1008,4 60 0,0
09.12.2019 22:00:00 13,5 -1,3 11,5 22 12 53 29 NW 1008,6 60 0,0
09.12.2019 21:00:00 13,8 -1,0 12,3 27 15 59 32 NW 1008,6 60 0,0
09.12.2019 20:00:00 14,1 -1,2 12,0 22 12 51 28 NW 1008,7 60 0,0
09.12.2019 19:00:00 13,7 0,0 11,8 26 14 57 31 WNW 1008,7 60 0,0
09.12.2019 18:00:00 14,1 -0,4 12,3 34 18 63 34 WNW 1008,7 60 0,0
09.12.2019 17:00:00 14,2 0,1 12,5 32 17 62 34 WNW 1008,5 60 0,0
09.12.2019 16:00:00 15,1 0,9 14,3 17 9 55 30 WNW 1008,9 57 0,0
09.12.2019 15:00:00 16,5 0,6 18,1 18 10 43 23 NW 1008,4 39 0,0
09.12.2019 14:00:00 17,1 0,3 16,1 18 10 49 26 W 1008,1 46 0,0
09.12.2019 13:00:00 16,9 3,2 16,2 13 7 32 17 WSW 1008,7 29 0,0
09.12.2019 12:00:00 15,4 4,7 17,2 21 11 40 22 SW 1009,5 17 0,0
09.12.2019 11:00:00 15,4 3,8 15,5 10 5 44 24 WSW 1010,5 28 0,0
09.12.2019 10:00:00 13,8 3,3 13,4 24 13 55 30 W 1010,6 28 0,0
09.12.2019 09:00:00 12,9 3,0 10,7 32 17 61 33 W 1011,2 30 0,0
09.12.2019 08:00:00 12,4 4,1 10,8 27 14 49 26 W 1010,9 60 0,0
09.12.2019 07:00:00 13,2 4,9 11,0 26 14 50 27 W 1010,6 60 0,0
09.12.2019 06:00:00 12,8 6,8 11,3 29 16 56 30 W 1010,5 60 0,0
09.12.2019 05:00:00 13,9 6,7 12,4 30 16 54 29 W 1010,1 60 0,0
09.12.2019 04:00:00 14,0 7,5 12,3 30 16 52 28 W 1010,5 60 0,0
09.12.2019 03:00:00 14,2 7,7 6,8 19 11 42 23 W 1011,6 60 0,0
09.12.2019 02:00:00 8,0 5,6 6,7 4 2 13 7 SSE 1012,5 42 0,0
09.12.2019 01:00:00 8,1 5,7 5,9 10 5 19 10 NE 1013,2 44 0,0
09.12.2019 00:00:00 6,8 5,6 3,7 6 4 14 8 S 1014,5 29 0,0
08.12.2019 23:00:00 6,7 5,3 2,9 6 3 10 6 NNE 1015,3 19 0,0
08.12.2019 22:00:00 6,8 5,4 3,3 4 2 8 5 NNE 1016,0 19 0,0
08.12.2019 21:00:00 7,7 6,2 3,6 5 3 8 4 NNE 1016,1 18 0,0
08.12.2019 20:00:00 8,6 6,6 4,4 4 2 8 4 N 1016,6 17 0,0
08.12.2019 19:00:00 10,4 7,5 5,0 2 1 6 3 N 1016,6 19 0,0
08.12.2019 18:00:00 12,7 8,2 11,0 3 2 13 7 N 1016,9 40 0,0
08.12.2019 17:00:00 13,2 7,6 11,6 8 4 20 11 SW 1017,2 60 0,0
08.12.2019 16:00:00 15,5 7,3 15,0 6 3 13 7 SW 1017,5 60 0,0
08.12.2019 15:00:00 15,7 8,2 19,2 10 5 18 10 S 1017,6 58 0,0
08.12.2019 14:00:00 16,2 8,7 16,6 10 5 18 10 SSW 1018,3 20 0,0
08.12.2019 13:00:00 15,7 11,1 16,6 13 7 16 9 S 1019,1 60 0,0
08.12.2019 12:00:00 15,2 8,4 18,1 4 2 12 6 N 1019,8 42 0,0
08.12.2019 11:00:00 12,7 7,4 14,1 7 4 18 10 N 1020,7 47 0,0
08.12.2019 10:00:00 9,8 6,3 7,9 9 5 16 9 N 1020,7 20 0,0
08.12.2019 09:00:00 7,2 5,0 4,6 6 4 13 7 N 1020,5 45 0,0
08.12.2019 08:00:00 5,8 4,3 4,5 6 3 17 9 N 1020,2 42 0,0
08.12.2019 07:00:00 6,0 4,6 4,7 8 4 14 7 N 1019,8 36 0,0
08.12.2019 06:00:00 6,1 4,7 4,6 8 4 13 7 N 1019,6 34 0,0
08.12.2019 05:00:00 6,4 5,2 5,0 6 3 14 7 N 1019,5 30 0,0
08.12.2019 04:00:00 6,8 5,6 5,1 6 3 16 8 N 1019,5 29 0,0
08.12.2019 03:00:00 7,2 6,0 5,5 6 4 11 6 N 1020,0 27 0,0
08.12.2019 02:00:00 7,7 6,5 6,3 6 3 13 7 N 1019,9 20 0,0
08.12.2019 01:00:00 8,1 6,6 6,9 5 3 12 7 N 1019,9 20 0,0
08.12.2019 00:00:00 8,4 7,0 7,0 8 4 14 7 N 1020,2 20 0,0
07.12.2019 23:00:00 7,8 6,9 6,4 7 4 16 9 N 1019,9 13 0,0
07.12.2019 22:00:00 7,3 6,6 5,9 8 4 13 7 N 1019,6 10 0,0
07.12.2019 21:00:00 7,4 6,7 6,0 7 4 13 7 N 1019,2 8 0,0
07.12.2019 20:00:00 7,7 6,9 6,3 8 4 12 6 N 1018,8 8 0,0
07.12.2019 19:00:00 8,6 7,5 7,0 6 4 13 7 N 1018,5 8 0,0
07.12.2019 18:00:00 9,6 8,0 7,3 6 3 9 5 N 1018,1 11 0,0
07.12.2019 17:00:00 11,7 8,5 8,8 5 3 9 5 NNW 1017,6 37 0,0
07.12.2019 16:00:00 14,5 9,5 14,4 7 4 11 6 S 1017,3 54 0,0
07.12.2019 15:00:00 15,4 9,7 18,8 7 4 14 8 S 1017,4 50 0,0
07.12.2019 14:00:00 15,1 8,6 15,1 9 5 16 8 SSE 1017,6 20 0,0
07.12.2019 13:00:00 15,4 7,9 16,1 7 4 11 6 SSE 1017,9 46 0,0
07.12.2019 12:00:00 16,3 8,8 19,8 0 0 6 4 N 1018,3 19 0,0
07.12.2019 11:00:00 12,8 6,6 15,2 4 2 13 7 N 1019,1 20 0,0
07.12.2019 10:00:00 10,0 4,8 8,7 5 3 11 6 N 1019,2 20 0,0
07.12.2019 09:00:00 7,0 4,0 3,5 8 4 18 10 N 1018,9 42 0,0
07.12.2019 08:00:00 4,9 3,4 1,2 6 4 10 5 N 1018,5 10 0,0
07.12.2019 07:00:00 5,0 2,7 1,9 0 0 13 7 N 1018,1 40 0,0
07.12.2019 06:00:00 5,8 3,3 3,7 4 2 13 7 N 1018,0 38 0,0
07.12.2019 05:00:00 6,2 3,7 4,9 9 5 21 11 N 1018,3 28 0,0
07.12.2019 04:00:00 6,3 4,5 4,3 9 5 15 8 N 1018,9 31 0,0
07.12.2019 03:00:00 5,5 4,6 4,2 5 3 12 6 N 1019,8 13 0,0
07.12.2019 02:00:00 6,0 5,0 3,8 5 3 12 7 N 1020,0 11 0,0
07.12.2019 01:00:00 6,2 5,2 5,0 6 3 16 9 N 1020,3 19 0,0
07.12.2019 00:00:00 6,2 5,3 5,1 6 4 11 6 N 1020,9 17 0,0
06.12.2019 23:00:00 6,4 5,5 5,3 6 4 14 7 N 1021,1 14 0,0
06.12.2019 22:00:00 6,9 5,8 5,4 7 4 11 6 N 1021,2 14 0,0
06.12.2019 21:00:00 7,4 6,5 6,2 6 3 12 6 N 1021,2 13 0,0
06.12.2019 20:00:00 8,0 6,9 6,8 6 4 12 7 N 1021,3 11 0,0
06.12.2019 19:00:00 8,8 7,6 7,4 5 3 11 6 N 1021,2 5 0,0
06.12.2019 18:00:00 10,1 8,2 6,3 6 3 10 5 N 1021,0 4,9 0,0
06.12.2019 17:00:00 12,2 8,1 7,2 0 0 7 4 N 1020,8 55 0,0
06.12.2019 16:00:00 14,8 8,9 15,2 5 3 8 4 S 1020,9 60 0,0
06.12.2019 15:00:00 15,6 8,3 19,7 7 4 11 6 S 1021,3 54 0,0
06.12.2019 14:00:00 16,2 7,1 15,9 4 2 7 4 SSW 1021,8 51 0,0
06.12.2019 13:00:00 13,7 7,9 14,3 5 3 8 5 N 1022,5 19 0,0
06.12.2019 12:00:00 12,3 7,4 12,1 3 1 12 7 N 1023,2 17 0,0
06.12.2019 11:00:00 10,9 5,8 11,5 6 3 15 8 N 1023,8 20 0,0
06.12.2019 10:00:00 10,0 5,2 9,2 9 5 17 9 N 1023,7 17 0,0
06.12.2019 09:00:00 9,1 4,9 8,4 11 6 20 11 N 1023,4 19 0,0
06.12.2019 08:00:00 8,7 5,6 8,2 8 4 19 10 N 1023,2 51 0,0
06.12.2019 07:00:00 9,0 6,1 8,4 8 4 13 7 N 1022,9 46 0,0
06.12.2019 06:00:00 9,5 6,6 8,9 8 4 15 8 NNE 1022,7 46 0,0
06.12.2019 05:00:00 9,8 6,5 9,3 7 4 15 8 N 1022,8 42 0,0
06.12.2019 04:00:00 10,1 6,2 9,3 9 5 16 9 N 1023,1 52 0,0
06.12.2019 03:00:00 9,9 6,6 9,4 8 5 17 9 N 1023,4 40 0,0
06.12.2019 02:00:00 9,8 7,0 8,8 7 4 14 7 N 1023,3 20 0,0
06.12.2019 01:00:00 9,6 7,4 8,2 7 4 15 8 N 1023,2 18 0,0
06.12.2019 00:00:00 9,9 7,5 9,2 10 5 16 9 N 1023,4 19 0,0
05.12.2019 23:00:00 10,1 8,0 9,3 10 5 16 8 N 1023,5 15 0,0
05.12.2019 22:00:00 10,1 8,2 9,4 9 5 17 9 N 1023,6 16 0,0
05.12.2019 21:00:00 10,6 8,4 10,0 9 5 18 10 NNE 1023,8 13 0,0
05.12.2019 20:00:00 11,1 8,7 10,3 7 4 11 6 NNE 1023,5 11 0,0
05.12.2019 19:00:00 13,3 5,7 11,0 3 2 16 9 WSW 1022,9 60 0,0
05.12.2019 18:00:00 14,5 4,5 11,9 5 3 16 9 ESE 1022,5 60 0,0
05.12.2019 17:00:00 15,0 2,8 12,9 4 2 17 9 ESE 1022,2 60 0,0
05.12.2019 16:00:00 15,9 3,0 14,7 3 2 9 5 WNW 1021,6 19 0,0
05.12.2019 15:00:00 14,1 8,3 13,0 2 1 11 6 NNE 1021,5 8 0,0
05.12.2019 14:00:00 13,0 8,7 12,7 4 2 8 4 N 1021,5 12 0,0
05.12.2019 13:00:00 13,1 6,7 12,9 4 2 11 6 NNW 1021,7 17 0,0
05.12.2019 12:00:00 12,8 5,9 12,9 7 4 14 8 N 1021,8 18 0,0
05.12.2019 11:00:00 11,2 5,1 10,0 8 4 18 10 N 1021,7 19 0,0
05.12.2019 10:00:00 8,7 4,3 7,4 10 5 17 9 N 1020,9 16 0,0
05.12.2019 09:00:00 7,0 3,8 5,4 6 3 14 8 N 1020,1 16 0,0
05.12.2019 08:00:00 6,4 3,4 4,5 5 3 14 8 N 1019,3 20 0,0
05.12.2019 07:00:00 6,2 3,0 4,1 6 3 20 11 NE 1018,7 43 0,0
05.12.2019 06:00:00 6,5 3,3 5,5 11 6 20 11 N 1018,1 44 0,0
05.12.2019 05:00:00 7,0 2,9 5,4 13 7 23 13 N 1018,0 49 0,0
05.12.2019 04:00:00 6,5 2,9 5,0 9 5 13 7 N 1017,4 42 0,0
05.12.2019 03:00:00 7,1 3,2 5,7 9 5 19 10 N 1017,1 37 0,0
05.12.2019 02:00:00 6,5 3,5 5,4 9 5 15 8 N 1017,1 31 0,0
05.12.2019 01:00:00 6,7 3,5 5,7 9 5 19 10 N 1017,3 20 0,0
05.12.2019 00:00:00 7,3 3,5 6,1 10 5 19 10 N 1017,5 20 0,0
04.12.2019 23:00:00 7,2 3,8 6,2 8 4 16 9 N 1017,3 19 0,0
04.12.2019 22:00:00 7,5 3,9 6,4 9 5 21 11 N 1017,2 16 0,0
04.12.2019 21:00:00 7,4 4,4 5,8 10 5 18 10 N 1017,5 12 0,0
04.12.2019 20:00:00 8,3 4,9 6,5 7 4 13 7 N 1017,2 13 0,0

tt = Température de l'air
td = dewpoint
tt 5cm = Température de l'air 5cm
ff = Vitesse du vent
fx = gusts
dd = Direction du vent
ppp = reduced air pressure
vv = visibility
rr = Quantités de précipitations

stations d'obs. à proximité